NOAA 16 DEB, 42374

Orbit data source: Space-Track

NOAA 16 DEB, 42374 is space debris in SSO originally from a launch on Thu, 21 Sep 2000 UTC launched from the Air Force Western Test Range (AFWTR). Debris objects in space refer to the collection of defunct objects orbiting the Earth. Examples of debris include non-operational satellites, rocket bodies, and fragments generated from explosions, collisions, or faulty payload assembly.

Loading next visibility...
Identifier
42374, 2000-055RS
Orbit
SSO
Country
Flag of USUS
Related business
Manufacturer
Unknown
Mission
Spacecraft
Bus & Motor
Unknown
Mass
Unknown
Launch date (UTC)
2000-09-21 (25 years ago)
Launch vehicle
Unknown
Launch site
Air Force Western Test Range (AFWTR)
Object type
Payload
Rocket body
Debris
Shape & HBR
Unknown shape, 0.1 m
Radar Cross Section
Small (<0.1 m²)

Expand to show TLE details & history
Last TLE update: 1 day ago

TLE from 1 day ago
0 NOAA 16 DEB
1 42374U 00055RS  25309.82542574  .00032894  00000-0  64931-2 0  9997
2 42374  98.8579  77.6919 0006625 351.9497   8.1595 14.62312561495900
Epoch: 2025-11-05T19:48Z
TLE epoch observation values (Epoch: 2025-11-05T19:48:36.783Z)
Latitude
-0.00004°
Longitude
95.24611°
Altitude
684.051 km
Speed
7.517 km/s
True Right ascension
05h 10m 46s
True Declination
0° 00' 00"
Sunlit
Object was in full shadow at epoch
Visualization orbit readout
Latitude
Unknown
Longitude
Unknown
Altitude
Unknown
Speed
Unknown
Apparent Right ascension
Unknown
Apparent Declination
Unknown
Sunlit
N/A
Visualization observer readout
Local Sidereal Time
16:18:19
Azimuth
Unknown
Elevation
Unknown
Doppler factor
Unknown
Orbital elements
Apogee altitude
687.504 km
Perigee altitude
678.148 km
Semi-major axis
7,060.963 km
Eccentricity
0.00066
Inclination
98.8579°
RAAN
77.6919°
Arg. of periapsis
351.9497°
True anomaly
8.17028°
Mean anomaly
8.1595°
Eccentric anomaly
8.16489°
Mean motion
3.65803 °/min
Orbital period
98.41 mins
BSTAR
0.0064931
Loading maneuver chart data...
Computing Atmospheric mass density...
Loading historical data...
Loading historical data...
Loading historical data...
Loading historical data...
Loading historical data...
Loading historical data...
Loading historical data...

Documentation

Showing up to 5 results
|